User: anonymous   Login
Location: Unspecified
(0.0000°N, 0.0000°E)
Time: 11:53:56
(UTC+00:00)
Language:

GRACE-FO 1 - Orbit

View from above orbital plane
View from above orbital plane
View from above satellite
View from above satellite

Ground track
Ground track

The orbit data is extracted from the following two-line orbital elements,

1 43476U 18047A   25198.11574065 +.00002107  00000-0 +62233-4 0    01
2 43476  88.9768 244.2200 0010160 351.4786  99.3546 15.34847455398358
Epoch (UTC): 17 July 2025 02:46:39
Eccentricity: 0.0010160
inclination: 88.9768°
perigee height: 454 km
apogee height: 468 km
right ascension of ascending node: 244.2200°
argument of perigee: 351.4786°
revolutions per day: 15.34847455
mean anomaly at epoch: 99.3546°
orbit number at epoch: 39835

The dashed part of the orbit path shows where the satellite is in the earth's shadow,  

DLR